Location: Ballingbuur
(53.0000°N, 5.7667°E)
Time: 06:48:08
(UTC+00:00)

Meteor 1-10 Rocket - Pass Details

Date: 29 November 2020
Orbit: 836 x 910 km, 81.3° (Epoch: 23 January)

Event Time Altitude Azimuth Distance (km) Brightness Sun altitude
Exits shadow 05:11:27 - 346° (NNW) 3,085 6.9 -19.1°
Reaches altitude 10° 05:13:03 10° 346° (NNW) 2,463 6.4 -18.9°
Maximum altitude 05:18:38 86° 259° (W) 851 4.1 -18.0°
Drops below altitude 10° 05:24:14 10° 171° (S) 2,469 6.9 -17.2°
Sets 05:26:39 0° 171° (S) 3,410 7.7 -16.9°
